Time,TemperatureF,DewpointF,PressureIn,WindDirection,WindDirectionDegrees,WindSpeedMPH,WindSpeedGustMPH,Humidity,HourlyPrecipIn,Conditions,Clouds,dailyrainin,SoftwareType,DateUTC
2014-10-02 00:02:00,55.2,51.4,30.07,ESE,112,0.0,0.0,87,0.00,,,0.00,open2300-1.11,2014-10-02 04:02:00,
2014-10-02 00:12:00,55.4,51.9,30.07,ESE,112,0.0,0.0,88,0.00,,,0.00,open2300-1.11,2014-10-02 04:12:00,
2014-10-02 00:22:00,55.8,52.2,30.07,ESE,112,0.0,0.0,88,0.00,,,0.00,open2300-1.11,2014-10-02 04:22:00,
2014-10-02 00:32:00,55.9,52.4,30.07,ESE,112,0.0,0.0,88,0.00,,,0.00,open2300-1.11,2014-10-02 04:32:00,
2014-10-02 00:42:00,55.9,52.4,30.07,ESE,112,0.0,0.0,88,0.00,,,0.00,open2300-1.11,2014-10-02 04:42:00,
2014-10-02 00:52:00,56.1,52.6,30.07,ESE,112,0.0,0.0,88,0.00,,,0.00,open2300-1.11,2014-10-02 04:52:00,
2014-10-02 01:02:00,56.3,52.8,30.06,ESE,112,0.0,0.0,88,0.00,,,0.00,open2300-1.11,2014-10-02 05:02:00,
2014-10-02 01:12:00,56.7,53.1,30.06,ESE,112,0.0,0.0,88,0.00,,,0.00,open2300-1.11,2014-10-02 05:12:00,
2014-10-02 01:22:00,57.4,53.8,30.07,ESE,112,0.0,0.0,88,0.00,,,0.00,open2300-1.11,2014-10-02 05:22:00,
2014-10-02 01:32:00,57.9,54.7,30.06,ESE,112,0.0,0.0,89,0.00,,,0.00,open2300-1.11,2014-10-02 05:32:00,
2014-10-02 01:42:00,58.3,55.1,30.06,ESE,112,0.0,0.0,89,0.00,,,0.00,open2300-1.11,2014-10-02 05:42:00,
2014-10-02 01:52:00,58.6,55.4,30.06,ESE,112,0.0,0.0,89,0.00,,,0.00,open2300-1.11,2014-10-02 05:52:00,
2014-10-02 02:02:00,58.8,55.6,30.06,ESE,112,0.0,0.0,89,0.00,,,0.00,open2300-1.11,2014-10-02 06:02:00,
2014-10-02 02:12:00,58.8,55.9,30.06,ESE,112,0.0,0.0,90,0.00,,,0.00,open2300-1.11,2014-10-02 06:12:00,
2014-10-02 02:22:00,58.8,55.9,30.06,ESE,112,0.0,0.0,90,0.00,,,0.00,open2300-1.11,2014-10-02 06:22:00,
2014-10-02 02:32:00,58.8,55.6,30.06,ESE,112,0.0,0.0,89,0.00,,,0.00,open2300-1.11,2014-10-02 06:32:00,
2014-10-02 02:42:00,58.8,55.6,30.06,ESE,112,0.0,0.0,89,0.00,,,0.00,open2300-1.11,2014-10-02 06:42:00,
2014-10-02 02:52:00,58.8,55.6,30.06,ESE,112,0.0,0.0,89,0.00,,,0.00,open2300-1.11,2014-10-02 06:52:00,
2014-10-02 03:02:00,58.8,55.6,30.06,ESE,112,0.0,0.0,89,0.00,,,0.00,open2300-1.11,2014-10-02 07:02:00,
2014-10-02 03:12:00,58.8,55.9,30.05,ESE,112,0.0,0.0,90,0.00,,,0.00,open2300-1.11,2014-10-02 07:12:00,
2014-10-02 03:22:00,58.8,55.9,30.06,ESE,112,0.0,0.0,90,0.00,,,0.00,open2300-1.11,2014-10-02 07:22:00,
2014-10-02 03:32:00,58.8,55.9,30.06,ESE,112,0.0,0.0,90,0.00,,,0.00,open2300-1.11,2014-10-02 07:32:00,
2014-10-02 03:42:00,58.6,55.8,30.06,ESE,112,0.0,0.0,90,0.00,,,0.00,open2300-1.11,2014-10-02 07:42:00,
2014-10-02 03:52:00,58.6,55.8,30.06,ESE,112,0.0,0.0,90,0.00,,,0.00,open2300-1.11,2014-10-02 07:52:00,
2014-10-02 04:02:00,58.6,55.8,30.05,ESE,112,0.0,0.0,90,0.00,,,0.00,open2300-1.11,2014-10-02 08:02:00,
2014-10-02 04:12:00,58.6,55.8,30.05,ESE,112,0.0,0.0,90,0.00,,,0.00,open2300-1.11,2014-10-02 08:12:00,
2014-10-02 04:22:00,58.6,55.8,30.04,ESE,112,0.0,0.0,90,0.00,,,0.00,open2300-1.11,2014-10-02 08:22:00,
2014-10-02 04:32:00,58.6,55.8,30.04,ESE,112,0.0,0.0,90,0.00,,,0.00,open2300-1.11,2014-10-02 08:32:00,
2014-10-02 04:42:00,58.6,55.8,30.05,ESE,112,0.0,0.0,90,0.00,,,0.00,open2300-1.11,2014-10-02 08:42:00,
2014-10-02 04:52:00,58.5,55.6,30.05,ESE,112,0.0,0.0,90,0.00,,,0.00,open2300-1.11,2014-10-02 08:52:00,
2014-10-02 05:02:00,58.5,55.6,30.05,ESE,112,0.0,0.0,90,0.00,,,0.00,open2300-1.11,2014-10-02 09:02:00,
2014-10-02 05:12:00,58.5,55.6,30.04,ESE,112,0.0,0.0,90,0.00,,,0.00,open2300-1.11,2014-10-02 09:12:00,
2014-10-02 05:22:00,58.5,55.9,30.04,ESE,112,0.0,0.0,91,0.00,,,0.00,open2300-1.11,2014-10-02 09:22:00,
2014-10-02 05:32:00,58.6,56.0,30.04,ESE,112,0.0,0.0,91,0.00,,,0.00,open2300-1.11,2014-10-02 09:32:00,
2014-10-02 05:42:00,58.6,56.0,30.03,ESE,112,0.0,0.0,91,0.00,,,0.00,open2300-1.11,2014-10-02 09:42:00,
2014-10-02 05:52:00,58.8,56.2,30.04,ESE,112,0.0,0.0,91,0.00,,,0.00,open2300-1.11,2014-10-02 09:52:00,
2014-10-02 06:02:00,58.8,56.2,30.04,ESE,112,0.0,0.0,91,0.00,,,0.00,open2300-1.11,2014-10-02 10:02:00,
2014-10-02 06:12:00,58.8,56.2,30.04,ESE,112,0.0,0.0,91,0.00,,,0.00,open2300-1.11,2014-10-02 10:12:00,
2014-10-02 06:22:00,58.8,56.2,30.04,ESE,112,0.0,0.0,91,0.00,,,0.00,open2300-1.11,2014-10-02 10:22:00,
2014-10-02 06:32:00,58.8,56.2,30.05,ESE,112,0.0,0.0,91,0.00,,,0.00,open2300-1.11,2014-10-02 10:32:00,
2014-10-02 06:42:00,58.8,56.2,30.05,ESE,112,0.0,0.0,91,0.00,,,0.00,open2300-1.11,2014-10-02 10:42:00,
2014-10-02 06:52:00,58.8,56.2,30.05,ESE,112,0.0,0.0,91,0.00,,,0.00,open2300-1.11,2014-10-02 10:52:00,
2014-10-02 07:02:00,58.6,56.0,30.05,ESE,112,0.0,0.0,91,0.00,,,0.00,open2300-1.11,2014-10-02 11:02:00,
2014-10-02 07:12:00,58.6,56.0,30.06,ESE,112,0.0,0.0,91,0.00,,,0.00,open2300-1.11,2014-10-02 11:12:00,
2014-10-02 07:22:00,58.5,55.9,30.06,ESE,112,0.0,0.0,91,0.00,,,0.00,open2300-1.11,2014-10-02 11:22:00,
2014-10-02 07:32:00,58.3,55.7,30.06,ESE,112,0.0,0.0,91,0.00,,,0.00,open2300-1.11,2014-10-02 11:32:00,
2014-10-02 07:42:00,58.3,55.7,30.06,ESE,112,0.0,0.0,91,0.00,,,0.00,open2300-1.11,2014-10-02 11:42:00,
2014-10-02 07:52:00,58.3,55.7,30.06,ESE,112,0.0,0.0,91,0.00,,,0.00,open2300-1.11,2014-10-02 11:52:00,
2014-10-02 08:02:00,58.5,55.9,30.05,ESE,112,0.0,0.0,91,0.00,,,0.00,open2300-1.11,2014-10-02 12:02:00,
2014-10-02 08:12:00,58.5,55.9,30.06,ESE,112,0.0,0.0,91,0.00,,,0.00,open2300-1.11,2014-10-02 12:12:00,
2014-10-02 08:22:00,58.6,56.0,30.06,ESE,112,0.0,0.0,91,0.00,,,0.00,open2300-1.11,2014-10-02 12:22:00,
2014-10-02 08:32:00,58.6,56.0,30.06,ESE,112,0.0,0.0,91,0.00,,,0.00,open2300-1.11,2014-10-02 12:32:00,
2014-10-02 08:42:00,58.8,56.2,30.06,ESE,112,0.0,0.0,91,0.00,,,0.00,open2300-1.11,2014-10-02 12:42:00,
2014-10-02 08:52:00,58.8,56.2,30.06,ESE,112,0.0,0.0,91,0.00,,,0.00,open2300-1.11,2014-10-02 12:52:00,
2014-10-02 09:02:00,58.8,56.2,30.05,ESE,112,0.0,0.0,91,0.00,,,0.00,open2300-1.11,2014-10-02 13:02:00,